EW0704 Weather Reports


time (UTC)temp
F
wind
direction
speed
knots
gust
knots
rain 1hr
in
rain 24hr
in
rain mn
in
humidity
%
barometer
mb
20260504173319 71 239 3.5 20.0 0.00 0.00 0.00 29 1010.6
20260504172305 70 232 6.1 20.0 0.00 0.00 0.00 28 1010.6
20260504171249 70 234 3.5 20.0 0.00 0.00 0.00 30 1010.6
20260504170303 69 261 7.0 20.0 0.00 0.00 0.00 26 1010.9
20260504160231 68 184 6.1 20.9 0.00 0.00 0.00 26 1011.6
20260504150110 66 207 7.0 20.9 0.00 0.00 0.00 30 1012.3
20260504141109 63 186 7.8 20.9 0.00 0.00 0.00 29 1012.5
20260504130722 59 244 3.5 12.2 0.00 0.00 0.00 39 1013.1
20260504081033 38 316 0.0 0.0 0.00 0.00 0.00 75 1012.6
20260504050452 39 305 0.0 0.0 0.00 0.00 0.00 68 1012.1
20260504045510 40 305 0.0 0.0 0.00 0.00 0.00 67 1012.2
20260504044452 40 305 0.0 1.7 0.00 0.00 0.00 66 1012.2
20260504043451 40 305 0.0 0.0 0.00 0.00 0.00 64 1012.1
20260504041348 41 305 0.0 0.0 0.00 0.00 0.00 64 1012.1
20260504035234 42 305 0.0 0.0 0.00 0.00 0.00 61 1012.0
20260504033108 42 305 0.0 0.0 0.00 0.00 0.00 60 1011.9
20260504024722 43 305 0.0 0.0 0.00 0.00 0.00 57 1011.8
20260504023736 44 305 0.0 0.0 0.00 0.00 0.00 57 1011.8
20260504022742 44 305 0.0 0.0 0.00 0.00 0.00 55 1011.8
20260504021758 45 305 0.0 0.0 0.00 0.00 0.00 54 1011.9
20260504020820 45 304 0.0 0.0 0.00 0.00 0.00 54 1011.8
20260504015820 45 305 0.0 0.0 0.00 0.00 0.00 52 1011.8
20260504014757 46 305 0.0 0.0 0.00 0.00 0.00 54 1011.7
20260504013822 47 305 0.0 0.0 0.00 0.00 0.00 50 1011.8
20260504012842 48 305 0.0 0.0 0.00 0.00 0.00 50 1011.6
20260504011854 48 305 0.0 0.0 0.00 0.00 0.00 46 1011.4
20260504005825 50 305 0.0 0.0 0.00 0.00 0.00 44 1011.0
20260504004813 50 304 0.0 0.0 0.00 0.00 0.00 41 1010.9
20260504001529 52 304 0.0 0.0 0.00 0.00 0.00 36 1010.5
20260504000528 53 304 0.0 0.0 0.00 0.00 0.00 34 1010.4
20260503235514 53 304 0.0 0.0 0.00 0.00 0.00 29 1010.2
20260503233402 54 304 0.0 0.9 0.00 0.00 0.00 28 1010.0
20260503232410 54 283 0.9 9.6 0.00 0.00 0.00 28 1009.9
20260503230252 55 303 0.0 7.8 0.00 0.00 0.00 28 1009.8
20260503225252 55 254 0.9 10.4 0.00 0.00 0.00 29 1009.7
20260503224311 55 331 2.6 12.2 0.00 0.00 0.00 27 1009.6
20260503223335 55 338 3.5 12.2 0.00 0.00 0.00 28 1009.6
20260503221225 55 303 2.6 11.3 0.00 0.00 0.00 29 1009.5
20260503220155 56 284 2.6 12.2 0.00 0.00 0.00 28 1009.5
20260503214107 57 301 3.5 20.0 0.00 0.00 0.00 27 1009.6
20260503213116 56 291 3.5 13.9 0.00 0.00 0.00 27 1009.6
20260503212108 56 265 3.5 16.5 0.00 0.00 0.00 28 1009.5
20260503211056 57 269 3.5 20.0 0.00 0.00 0.00 26 1009.6
20260503205054 57 259 3.5 22.6 0.00 0.00 0.00 28 1009.4
20260503204053 57 324 3.5 22.6 0.00 0.00 0.00 28 1009.4
20260503203058 56 294 5.2 20.9 0.00 0.00 0.00 29 1009.5
20260503202111 56 274 3.5 19.1 0.00 0.00 0.00 28 1009.6
20260503201124 56 353 5.2 19.1 0.00 0.00 0.00 26 1009.5
20260503200149 57 306 3.5 17.4 0.00 0.00 0.00 30 1009.6
20260503195210 58 324 3.5 19.1 0.00 0.00 0.00 31 1009.6
20260503193021 58 321 3.5 17.4 0.00 0.00 0.00 30 1009.6
20260503192035 58 306 3.5 12.2 0.00 0.00 0.00 29 1009.5
20260503191057 58 245 5.2 22.6 0.00 0.00 0.00 32 1009.5
20260503190054 58 259 3.5 22.6 0.00 0.00 0.00 29 1009.5
20260503181621 55 246 3.5 22.6 0.00 0.00 0.00 33 1009.6
20260503180608 55 258 3.5 12.2 0.00 0.00 0.00 34 1009.5
20260503175605 54 195 3.5 16.5 0.00 0.00 0.00 31 1009.4